Terug naar catalogus

STARLINK-31877

ActiefCommunicatieVLEO
NORAD 59675·PAYLOAD·🇺🇸 United States

Gelanceerd May 6, 2024 vanaf Cape Canaveral Space Force Station

Loading…

Volgende Passages (komende 24 uur)

TLE

VersSource: CelesTrak SupGP

Epoch: Sep 14, 2026, 22:51 UTC

1 59675C 24084X   26257.95256944  .00046120  00000+0  16708-2 0  2579
2 59675  43.0010  53.0550 0001483 276.1687 206.7920 15.27549345    15

Volg STARLINK-31877 in realtime met AllMySat

Download on the App Store